Location: Battery Park City
(40.7115°N, 74.0163°W)
Time: 22:32:32
(UTC+00:00)

OAO 2 Rocket - Pass Details

Date: 08 December 2019
Orbit: 676 x 746 km, 35.0° (Epoch: 17 January)

Event Time Altitude Azimuth Distance (km) Brightness Sun altitude
Rises 23:28:57 0° 257° (WSW) 3,050 8.1 -22.1°
Reaches altitude 10° 23:31:24 10° 251° (WSW) 2,145 6.9 -22.6°
Maximum altitude 23:36:11 44° 180° (S) 962 4.0 -23.5°
Enters shadow 23:37:08 40° 149° (SSE) 1,040 4.0 -23.6°
